sat.trackr.live / text

‹ back to catalog

QIANFAN-150

NORAD 69109 · 2026-108F

PAYLOAD ACTIVE UNKNOWN

§ Identity

Operator
Country
PRC
Launch date
2026-05-17
Launch site
WSC
Launch vehicle
Mass (kg)
RCS (m²)

External: N2YO · Heavens-Above · Gunter

§ Orbital elements

Epoch: 2026-09-20T04:05:14.208576Z

Period
106.59 min
Inclination
89.0194°
Eccentricity
0.0002322
Mean motion
13.51024624 rev/d
Perigee alt
1,066.8 km
Apogee alt
1,070.2 km
Semi-major
7,446.6 km
B*
1.4154e-4
RAAN
12.5358°
Arg perigee
107.3846°
Mean anomaly
252.7559°
Rev number
1,727

§ Raw data

QIANFAN-1501 69109U 26108F   26263.17030334  .00000103  00000+0  14154-3 0  99932 69109  89.0194  12.5358 0002322 107.3846 252.7559 13.51024624 17270

JSON: /api/v1/satellites/69109 · /tle

For live sub-satellite position, see the globe view (requires WebGL).

§ Visibility from observer

Set your observer location to see the next 7 days of passes ≥ 10°. The values pass through the URL so the page stays shareable.

No JS? Fill the form by hand. The geolocation button needs JavaScript.